This is the latest recevied weather packets stored in our database for station/object WX2P-13. If no packets are shown the sender has not sent any weather packets the latest 1 day(s).
| Time | Temp. | Humidity | Pressure | Rain* | Wind** | Luminosity | Snow |
|---|---|---|---|---|---|---|---|
| 1778068776 | 17.78° C | 97% | 1016.9 hPa | 0 mm | - | 44 W/m² | - |
| 1778068474 | 16.67° C | 97% | 1017 hPa | 0 mm | - | 49 W/m² | - |
| 1778068172 | 16.67° C | 97% | 1016.9 hPa | 0 mm | - | 35 W/m² | - |
| 1778067869 | 16.67° C | 97% | 1016.9 hPa | 0 mm | - | 26 W/m² | - |
| 1778066659 | 15.56° C | 97% | 1016.6 hPa | 0 mm | - | 14 W/m² | - |
| 1778066356 | 15.56° C | 97% | 1016.5 hPa | 0 mm | - | 13 W/m² | - |
| 1778065751 | 15.56° C | 97% | 1016.5 hPa | 0 mm | - | 10 W/m² | - |
| 1778065145 | 15.56° C | 97% | 1016.4 hPa | 0 mm | - | 3 W/m² | - |
| 1778064539 | 15.56° C | 97% | 1016.6 hPa | 0 mm | - | 0 W/m² | - |
| 1778062117 | 15.56° C | 97% | 1016 hPa | 0 mm | - | 0 W/m² | - |
| 1778061210 | 15.56° C | 97% | 1015.8 hPa | 0 mm | - | 0 W/m² | - |
| 1778060907 | 15.56° C | 97% | 1016.1 hPa | 0 mm | - | 0 W/m² | - |
| 1778060304 | 15.56° C | 96% | 1016.2 hPa | 0 mm | - | 0 W/m² | - |
| 1778059396 | 16.11° C | 96% | 1016.3 hPa | 0 mm | - | 0 W/m² | - |
| 1778059093 | 16.11° C | 96% | 1016 hPa | 0 mm | - | 0 W/m² | - |
| 1778058488 | 16.11° C | 96% | 1016.3 hPa | 0 mm | - | 0 W/m² | - |
| 1778058185 | 16.11° C | 96% | 1016.3 hPa | 0 mm | - | 0 W/m² | - |
| 1778056668 | 16.11° C | 96% | 1015.9 hPa | 0 mm | - | 0 W/m² | - |
| 1778056366 | 16.67° C | 96% | 1016.1 hPa | 0 mm | - | 0 W/m² | - |
| 1778056063 | 16.67° C | 96% | 1016.4 hPa | 0 mm | - | 0 W/m² | - |
| 1778055758 | 16.67° C | 96% | 1016.2 hPa | 0 mm | - | 0 W/m² | - |
| 1778055153 | 16.67° C | 96% | 1015.9 hPa | 0 mm | - | 0 W/m² | - |
| 1778054852 | 16.67° C | 96% | 1016 hPa | 0 mm | - | 0 W/m² | - |
| 1778053640 | 16.67° C | 96% | 1016 hPa | 0 mm | - | 0 W/m² | - |
| 1778053337 | 16.67° C | 96% | 1015.8 hPa | 0 mm | - | 0 W/m² | - |
* Rain latest hour (hover to see other rain measurements)
** Current wind speed in m/s (hover to see current wind gust speed)